Location: 81360 Arifat, France
(43.7204°N, 2.3408°E)
Time: 04:20:29
(UTC+01:00)

ACS3 Solar Sail - Pass Details

Date: 21 October 2025
Orbit: 909 x 993 km, 97.3° (Epoch: 13 November)

Event Time Altitude Azimuth Distance (km) Brightness Sun altitude
Rises 05:18:15 0° 14° (NNE) 3,554 5.1 -31.9°
Reaches altitude 10° 05:20:42 10° 18° (NNE) 2,613 4.4 -31.5°
Maximum altitude 05:26:29 65° 100° (E) 1,011 1.9 -30.5°
Enters shadow 05:27:51 50° 155° (SSE) 1,160 2.1 -30.3°
